EWG455 LFLL-EDDK

Flight info

Callsign EWG455
Flight time N/A
Altitude 22000
Route RISOR T47 GEMLA/N0452F320 DCT GODRA/N0453F310 DCT LADOL/N0453F320 T163 KOVAN T844 ASKIK T840 GULKO GULKO1B
Aircraft A320/M-SDE3FGHIRWY/LB1

Departure

Time N/A
Airport Lyon Saint-Exupéry Airport (LFLL)

Arrival

Time 2026-05-05 22:14
Airport Cologne Bonn Airport (EDDK)
Time Latitude Longitude Altitude Speed Heading
2026-05-05 21:19 45.67908 5.60468 11924 ft 313 kts 66°
2026-05-05 21:19 45.68895 5.63253 11939 ft 313 kts 65°
2026-05-05 21:19 45.69882 5.66038 11939 ft 313 kts 65°
2026-05-05 21:20 45.70862 5.68821 11932 ft 313 kts 65°
2026-05-05 21:20 45.71753 5.71660 11813 ft 313 kts 72°
2026-05-05 21:20 45.72365 5.74601 10977 ft 312 kts 75°
2026-05-05 21:20 45.73224 5.77416 10653 ft 304 kts 65°
2026-05-05 21:21 45.74185 5.80126 10993 ft 307 kts 65°
2026-05-05 21:21 45.75162 5.82865 11348 ft 309 kts 65°
2026-05-05 21:21 45.76141 5.85622 11704 ft 311 kts 65°
2026-05-05 21:21 45.77127 5.88397 11910 ft 313 kts 65°
2026-05-05 21:22 45.78141 5.91159 11933 ft 315 kts 61°
2026-05-05 21:22 45.79302 5.93787 11942 ft 315 kts 59°
2026-05-05 21:22 45.80509 5.96410 11944 ft 315 kts 58°
2026-05-05 21:22 45.81736 5.99023 11946 ft 315 kts 58°
2026-05-05 21:23 45.82968 6.01633 11946 ft 316 kts 58°
2026-05-05 21:23 45.84199 6.04247 11947 ft 316 kts 58°
2026-05-05 21:23 45.85410 6.06838 11947 ft 316 kts 58°
2026-05-05 21:23 45.86648 6.09504 11954 ft 331 kts 58°
2026-05-05 21:24 45.87978 6.12389 11954 ft 361 kts 58°
2026-05-05 21:24 45.89390 6.15458 11948 ft 372 kts 58°
2026-05-05 21:24 45.90811 6.18533 11942 ft 375 kts 58°
2026-05-05 21:24 45.92254 6.21659 11945 ft 375 kts 58°
2026-05-05 21:25 45.93694 6.24780 11948 ft 375 kts 58°
2026-05-05 21:25 45.95138 6.27912 12034 ft 379 kts 58°
2026-05-05 21:25 45.96111 6.30019 12514 ft 381 kts 58°
2026-05-05 21:25 45.97581 6.33206 13426 ft 383 kts 58°
2026-05-05 21:26 45.99060 6.36419 14190 ft 387 kts 58°
2026-05-05 21:26 46.00547 6.39666 14861 ft 391 kts 58°
2026-05-05 21:26 46.02054 6.42957 15550 ft 396 kts 58°
2026-05-05 21:26 46.04309 6.47883 16503 ft 402 kts 58°
2026-05-05 21:27 46.07417 6.54681 17787 ft 411 kts 58°
2026-05-05 21:27 46.10580 6.61631 18935 ft 419 kts 58°
2026-05-05 21:27 46.13795 6.68716 20083 ft 425 kts 59°
2026-05-05 21:27 46.17058 6.75930 21178 ft 432 kts 59°
2026-05-05 21:28 46.20362 6.83251 22227 ft 437 kts 59°
2026-05-05 21:28 46.23712 6.90669 23289 ft 443 kts 59°
2026-05-05 21:28 46.27094 6.98200 24136 ft 450 kts 59°
2026-05-05 21:28 46.30520 7.05853 24886 ft 458 kts 59°
2026-05-05 21:29 46.33965 7.13564 25596 ft 465 kts 59°
2026-05-05 21:29 46.37501 7.21509 26309 ft 472 kts 59°
2026-05-05 21:29 46.41097 7.29597 26940 ft 481 kts 59°
2026-05-05 21:29 46.44745 7.37820 27606 ft 487 kts 59°
2026-05-05 21:30 46.48435 7.46166 28212 ft 494 kts 59°
2026-05-05 21:30 46.52165 7.54628 28795 ft 500 kts 59°
2026-05-05 21:30 46.55941 7.63225 29363 ft 507 kts 58°
2026-05-05 21:30 46.60582 7.70861 29957 ft 513 kts 40°
2026-05-05 21:31 46.66578 7.76457 30676 ft 511 kts 26°
2026-05-05 21:31 46.72873 7.81261 31487 ft 508 kts 26°
2026-05-05 21:31 46.79111 7.86073 31945 ft 504 kts 26°
2026-05-05 21:31 46.85294 7.90862 31939 ft 501 kts 26°
2026-05-05 21:32 46.97588 8.00391 31939 ft 496 kts 26°
2026-05-05 21:32 47.09694 8.09832 31918 ft 495 kts 26°
2026-05-05 21:33 47.21785 8.19309 31928 ft 491 kts 27°
2026-05-05 21:33 47.33842 8.28788 31940 ft 491 kts 27°
2026-05-05 21:34 47.45952 8.38361 31905 ft 490 kts 27°
2026-05-05 21:34 47.57910 8.47873 31922 ft 490 kts 27°
2026-05-05 21:35 47.70010 8.57535 31928 ft 489 kts 27°
2026-05-05 21:35 47.81864 8.67067 31931 ft 487 kts 27°
2026-05-05 21:36 47.93771 8.76689 31930 ft 484 kts 28°
2026-05-05 21:36 48.01125 8.82646 31924 ft 483 kts 28°
2026-05-05 21:37 48.06996 8.87427 31918 ft 482 kts 28°
2026-05-05 21:37 48.12892 8.92229 31921 ft 480 kts 27°
2026-05-05 21:38 48.19166 8.95564 31914 ft 477 kts
2026-05-05 21:38 48.25738 8.96699 31904 ft 476 kts
2026-05-05 21:39 48.32317 8.97693 31900 ft 475 kts
2026-05-05 21:39 48.38898 8.98694 31889 ft 475 kts
2026-05-05 21:40 48.45477 8.99698 31887 ft 474 kts
2026-05-05 21:40 48.52054 9.00717 31872 ft 474 kts
2026-05-05 21:41 48.58589 9.01724 31863 ft 474 kts
2026-05-05 21:41 48.65155 9.02782 31863 ft 474 kts
2026-05-05 21:42 48.71692 9.04277 31861 ft 475 kts
2026-05-05 21:42 48.78207 9.05978 31864 ft 474 kts
2026-05-05 21:43 48.84731 9.07504 31863 ft 473 kts
2026-05-05 21:43 48.91218 9.06747 31848 ft 469 kts 345°
2026-05-05 21:44 48.97443 9.03784 31843 ft 468 kts 340°
2026-05-05 21:44 49.03636 9.00678 31844 ft 468 kts 340°
2026-05-05 21:45 49.09805 8.97585 31839 ft 468 kts 340°
2026-05-05 21:45 49.15996 8.94464 31839 ft 468 kts 340°
2026-05-05 21:46 49.19661 8.92602 31831 ft 469 kts 340°
2026-05-05 21:49 49.24576 8.90087 31844 ft 469 kts 340°
2026-05-05 21:49 49.27171 8.88760 31851 ft 469 kts 341°
2026-05-05 21:50 49.33385 8.85592 31832 ft 470 kts 341°
2026-05-05 21:50 49.38510 8.82979 31830 ft 470 kts 341°
2026-05-05 21:52 49.41817 8.81336 31830 ft 471 kts 342°
2026-05-05 21:53 49.44929 8.79893 31835 ft 471 kts 343°
2026-05-05 21:54 49.49031 8.78139 31834 ft 471 kts 344°
2026-05-05 21:54 49.55369 8.75507 31833 ft 471 kts 344°
2026-05-05 21:55 49.61697 8.72797 31836 ft 471 kts 343°
2026-05-05 21:55 49.67977 8.70008 31833 ft 472 kts 343°
2026-05-05 21:56 49.74282 8.67187 31836 ft 472 kts 344°
2026-05-05 21:56 49.80598 8.64381 31838 ft 472 kts 344°
2026-05-05 21:57 49.86970 8.61547 30755 ft 477 kts 343°
2026-05-05 21:57 49.90107 8.60107 31003 ft 472 kts 344°
2026-05-05 21:57 49.93251 8.58690 30720 ft 473 kts 345°
2026-05-05 21:57 49.96576 8.57220 30058 ft 474 kts 345°
2026-05-05 21:58 49.99615 8.55886 28729 ft 481 kts 345°
2026-05-05 21:58 50.02909 8.54436 27308 ft 488 kts 345°
2026-05-05 21:58 50.06160 8.52977 26103 ft 491 kts 343°
2026-05-05 21:58 50.09401 8.51383 25334 ft 483 kts 341°
2026-05-05 21:59 50.12568 8.49690 24477 ft 478 kts 341°
2026-05-05 21:59 50.17244 8.47062 23219 ft 471 kts 340°
2026-05-05 21:59 50.27292 8.41448 20651 ft 452 kts 340°
2026-05-05 21:59 50.30129 8.39426 19991 ft 444 kts 328°
2026-05-05 22:00 50.32734 8.36908 19330 ft 438 kts 327°
2026-05-05 22:00 50.35308 8.34378 18685 ft 432 kts 326°
2026-05-05 22:00 50.37824 8.31871 18081 ft 426 kts 326°
2026-05-05 22:00 50.40309 8.29378 17436 ft 419 kts 325°
2026-05-05 22:01 50.42736 8.26939 16872 ft 411 kts 325°
2026-05-05 22:01 50.45104 8.24561 16319 ft 404 kts 325°
2026-05-05 22:01 50.47467 8.22188 15784 ft 398 kts 325°
2026-05-05 22:01 50.49781 8.19864 15225 ft 392 kts 325°
2026-05-05 22:02 50.52070 8.17561 14674 ft 388 kts 325°
2026-05-05 22:02 50.54313 8.15302 14105 ft 384 kts 325°
2026-05-05 22:02 50.56557 8.13038 13483 ft 382 kts 325°
2026-05-05 22:02 50.58789 8.10789 12840 ft 378 kts 325°
2026-05-05 22:03 50.60998 8.08561 12195 ft 375 kts 325°
2026-05-05 22:03 50.63185 8.06347 11512 ft 373 kts 325°
2026-05-05 22:03 50.65365 8.04137 10847 ft 370 kts 325°
2026-05-05 22:03 50.66789 8.02692 10658 ft 362 kts 325°
2026-05-05 22:04 50.68854 8.00597 10540 ft 344 kts 325°
2026-05-05 22:04 50.71451 7.97965 10373 ft 324 kts 324°
2026-05-05 22:04 50.73230 7.95895 10193 ft 312 kts 318°
2026-05-05 22:04 50.74299 7.94430 10105 ft 302 kts 312°
2026-05-05 22:05 50.75318 7.91673 9935 ft 286 kts 281°
2026-05-05 22:05 50.75291 7.88606 9719 ft 279 kts 256°
2026-05-05 22:05 50.74601 7.84692 9501 ft 280 kts 256°
2026-05-05 22:05 50.74340 7.82642 9166 ft 281 kts 259°
2026-05-05 22:06 50.74045 7.79614 8647 ft 284 kts 261°
2026-05-05 22:06 50.73786 7.76497 8125 ft 286 kts 262°
2026-05-05 22:06 50.73535 7.73371 7619 ft 287 kts 262°
2026-05-05 22:06 50.73279 7.70248 7121 ft 288 kts 262°
2026-05-05 22:07 50.73014 7.67106 6632 ft 288 kts 261°
2026-05-05 22:07 50.72740 7.63959 6138 ft 289 kts 261°
2026-05-05 22:07 50.72468 7.60906 5623 ft 279 kts 261°
2026-05-05 22:07 50.72200 7.57940 5115 ft 267 kts 261°
2026-05-05 22:08 50.71941 7.55094 4611 ft 257 kts 261°
2026-05-05 22:08 50.71689 7.52348 4097 ft 248 kts 261°
2026-05-05 22:08 50.71704 7.49676 3589 ft 241 kts 280°
2026-05-05 22:08 50.72057 7.47129 3214 ft 234 kts 283°
2026-05-05 22:09 50.72423 7.44682 3039 ft 227 kts 283°
2026-05-05 22:09 50.72781 7.42313 2993 ft 215 kts 283°
2026-05-05 22:09 50.73118 7.40083 2994 ft 203 kts 283°
2026-05-05 22:09 50.73439 7.37956 2996 ft 197 kts 283°
2026-05-05 22:10 50.73755 7.35860 2996 ft 195 kts 283°
2026-05-05 22:10 50.74088 7.33789 3002 ft 194 kts 291°
2026-05-05 22:10 50.74793 7.32031 3010 ft 184 kts 316°
2026-05-05 22:10 50.75688 7.30740 2911 ft 172 kts 318°
2026-05-05 22:11 50.76563 7.29485 2725 ft 169 kts 318°
2026-05-05 22:11 50.77428 7.28242 2513 ft 166 kts 318°
2026-05-05 22:11 50.78280 7.27016 2285 ft 164 kts 319°
2026-05-05 22:11 50.79112 7.25818 2072 ft 157 kts 319°
2026-05-05 22:12 50.79894 7.24691 1867 ft 149 kts 318°
2026-05-05 22:12 50.80649 7.23603 1671 ft 145 kts 318°
2026-05-05 22:12 50.81379 7.22549 1471 ft 143 kts 318°
2026-05-05 22:12 50.82117 7.21484 1275 ft 140 kts 317°
2026-05-05 22:13 50.82835 7.20449 1066 ft 139 kts 317°
2026-05-05 22:13 50.83538 7.19433 862 ft 138 kts 316°
2026-05-05 22:13 50.84246 7.18410 685 ft 137 kts 317°
2026-05-05 22:13 50.84946 7.17400 506 ft 135 kts 317°
2026-05-05 22:14 50.85632 7.16403 320 ft 131 kts 318°
2026-05-05 22:14 50.86227 7.15546 292 ft 91 kts 317°
2026-05-05 22:14 50.86569 7.15051 276 ft 42 kts 317°
2026-05-05 22:14 50.86741 7.14801 269 ft 29 kts 317°
2026-05-05 22:15 50.86857 7.14551 262 ft 27 kts 292°
2026-05-05 22:15 50.86886 7.14332 258 ft 13 kts 280°
2026-05-05 22:15 50.86895 7.14254 256 ft 6 kts 280°
2026-05-05 22:15 50.86900 7.14206 255 ft 3 kts 280°
2026-05-05 22:16 50.86911 7.14103 255 ft 13 kts 279°
2026-05-05 22:16 50.86928 7.13949 251 ft 16 kts 282°
2026-05-05 22:16 50.87003 7.13808 244 ft 19 kts 317°
2026-05-05 22:16 50.87086 7.13687 240 ft 10 kts 316°
2026-05-05 22:17 50.87115 7.13642 239 ft 4 kts 316°